[[{"header":{"parameterUnit":"m.s-1","parameterCategory":1,"la1":30.2992,"la2":30.254,"lo1":-89.0895,"lo2":-89.0443,"dy":0.0025,"dx":0.0025,"nx":19,"ny":19,"refTime":"2026-05-14T03:00:00:Z","depth":0,"parameterNumber":2,"parameterNumberName":"U-component_of_WINDS"},"data":[0,0,0,0.1326,0.1327,0.1352,0.1352,0.1401,0.1402,0,0,0,0,0,0,0,0,0,0,0,0.1328,0.1329,0.1326,0.1327,0.1352,0.1352,0.1401,0.1402,0,0,0,0,0,0,0,0,0,0,0,0.1328,0.1329,0.133,0.1327,0.1352,0.1352,0.1401,0.1376,0,0,0,0,0,0,0,0,0,0,0.1349,0.136,0.1329,0.133,0.1327,0.1352,0.1352,0.1375,0.1378,0.1397,0,0.1417,0,0.141,0.1406,0.1407,0,0,0,0.132,0.1358,0.1356,0.133,0.1328,0.1352,0.1339,0.1376,0.138,0.1401,0.1417,0.1419,0.1411,0.1407,0.1407,0.1544,0.1545,0,0,0.1318,0.1338,0.1354,0.1359,0.1355,0.1338,0.1339,0.1378,0.1397,0.1417,0.1419,0.1412,0.1407,0.1408,0.1543,0.1544,0,0,0,0.1319,0.1338,0.1334,0.1357,0.136,0.1339,0.1341,0.1395,0.1392,0.142,0.1413,0.1408,0.1408,0.1542,0.1543,0.1611,0,0,0,0.1318,0.1338,0.1334,0.1346,0.136,0.1378,0.1357,0.139,0.1393,0.1412,0.1408,0.1409,0.154,0.1542,0.1607,0.1641,0,0,0,0.1323,0.1338,0.1345,0.1347,0.1359,0.1377,0.1376,0.139,0.1389,0.1407,0.1409,0.154,0.1542,0.1603,0.1634,0.1683,0,0,0,0.1335,0.1405,0.1347,0.1423,0.1359,0.1419,0.1375,0.1419,0.1442,0.1408,0.1541,0.1543,0.1602,0.163,0.1679,0.1728,0.1751,0,0,0.1435,0.1418,0.1461,0.1409,0.1485,0.1413,0.1499,0.1501,0.1484,0.1525,0.1528,0.1609,0.1634,0.1682,0.1866,0.1884,0,0,0,0.1499,0.1531,0.1546,0.1569,0.1573,0.1579,0.1566,0.1567,0.1601,0.1509,0.1638,0.1653,0.168,0.1703,0.1718,0.1741,0.1554,0.1554,0.1554,0.1669,0.1645,0.1715,0.1694,0.1717,0.1703,0.172,0.1719,0.1687,0.1718,0.173,0.1845,0.1872,0.1883,0.1908,0.1753,0.1754,0.1754,0.1754,0.1814,0.1855,0.1811,0.1864,0.1838,0.1882,0.1872,0.1848,0.1886,0.1833,0.1856,0.1802,0.1904,0.1924,0.1759,0.1758,0.1758,0.1757,0.1757,0.1923,0.1938,0.1939,0.1971,0.1998,0.1974,0.2013,0.1987,0.1964,0.1987,0.1998,0.1996,0.1993,0.1994,0.1994,0.1994,0.1995,0.1995,0.1995,0.2036,0.2034,0.207,0.2081,0.2093,0.2106,0.2094,0.2106,0.2112,0.2091,0.2091,0.2057,0.1918,0.1884,0.2001,0.2,0.2,0.1999,0.1999,0.2193,0.2154,0.2209,0.2222,0.2233,0.2263,0.223,0.2257,0.2262,0.2283,0.2244,0.2145,0.2126,0.2114,0.2085,0.2248,0.2248,0.2248,0.2248,0.2286,0.2274,0.2325,0.2347,0.2366,0.2342,0.2407,0.2399,0.2385,0.2387,0.236,0.232,0.2309,0.2297,0.2281,0.2254,0.2456,0.2456,0.2456,0.2382,0.2371,0.243,0.2416,0.2423,0.2431,0.2491,0.2519,0.2494,0.2464,0.2389,0.238,0.2316,0.2296,0.2265,0.224,0.2191,0,0]},{"header":{"parameterUnit":"m.s-1","parameterCategory":1,"la1":30.2992,"la2":30.254,"lo1":-89.0895,"lo2":-89.0443,"dy":0.0025,"dx":0.0025,"nx":19,"ny":19,"refTime":"2026-05-14T03:00:00:Z","depth":0,"parameterNumber":3,"parameterNumberName":"V-component_of_WINDS"},"data":[0,0,0,-2.0337,-2.0337,-2.0363,-2.0363,-2.0393,-2.0394,0,0,0,0,0,0,0,0,0,0,0,-2.0327,-2.0327,-2.0337,-2.0337,-2.0363,-2.0363,-2.0393,-2.0394,0,0,0,0,0,0,0,0,0,0,0,-2.0327,-2.0327,-2.0327,-2.0337,-2.0363,-2.0363,-2.0393,-2.0375,0,0,0,0,0,0,0,0,0,0,-2.035,-2.0339,-2.0327,-2.0327,-2.0337,-2.0363,-2.0363,-2.0374,-2.0376,-2.038,0,-2.0384,0,-2.039,-2.0395,-2.0396,0,0,0,-2.0338,-2.0337,-2.0347,-2.0327,-2.0338,-2.0363,-2.0352,-2.0375,-2.0377,-2.0383,-2.0385,-2.0386,-2.039,-2.0396,-2.0396,-2.0423,-2.0423,0,0,-2.0337,-2.033,-2.0345,-2.0348,-2.0344,-2.0351,-2.0353,-2.0376,-2.0377,-2.0385,-2.0387,-2.0391,-2.0396,-2.0396,-2.0423,-2.0423,0,0,0,-2.0332,-2.0329,-2.0338,-2.0347,-2.0352,-2.0352,-2.0354,-2.0376,-2.038,-2.0387,-2.0391,-2.0396,-2.0396,-2.0422,-2.0423,-2.0422,0,0,0,-2.0331,-2.0326,-2.0337,-2.0333,-2.0351,-2.0364,-2.0353,-2.0378,-2.0381,-2.0391,-2.0396,-2.0397,-2.0422,-2.0423,-2.0422,-2.0422,0,0,0,-2.0326,-2.0326,-2.0329,-2.0333,-2.0344,-2.0364,-2.0369,-2.0379,-2.0383,-2.0396,-2.0397,-2.0422,-2.0423,-2.0422,-2.0422,-2.043,0,0,0,-2.0318,-2.0325,-2.0329,-2.0339,-2.0344,-2.0364,-2.0369,-2.0383,-2.0394,-2.0396,-2.0422,-2.0423,-2.0422,-2.0422,-2.0429,-2.0435,-2.0437,0,0,-2.0324,-2.0326,-2.0333,-2.0337,-2.0355,-2.036,-2.0378,-2.0392,-2.0398,-2.0414,-2.0415,-2.0422,-2.0422,-2.043,-2.0447,-2.0448,0,0,0,-2.0333,-2.0338,-2.0344,-2.0355,-2.0368,-2.038,-2.0393,-2.0399,-2.0413,-2.0405,-2.0426,-2.0427,-2.0431,-2.0434,-2.0435,-2.0441,-2.0424,-2.0424,-2.0423,-2.033,-2.0341,-2.0354,-2.0368,-2.0379,-2.0395,-2.0405,-2.0416,-2.0419,-2.0425,-2.0429,-2.0439,-2.0442,-2.0443,-2.0449,-2.0433,-2.0433,-2.0433,-2.0433,-2.0341,-2.035,-2.0361,-2.0377,-2.0388,-2.0402,-2.0419,-2.0422,-2.0437,-2.0435,-2.044,-2.0438,-2.0444,-2.045,-2.0433,-2.0433,-2.0433,-2.0433,-2.0433,-2.0341,-2.0347,-2.0357,-2.0377,-2.0391,-2.0406,-2.0421,-2.043,-2.0438,-2.0443,-2.045,-2.045,-2.0453,-2.0446,-2.0446,-2.0446,-2.0446,-2.0446,-2.0446,-2.0337,-2.0348,-2.036,-2.0378,-2.0389,-2.0404,-2.0423,-2.0434,-2.0448,-2.0453,-2.0453,-2.0459,-2.0443,-2.044,-2.0447,-2.0446,-2.0446,-2.0446,-2.0446,-2.0344,-2.0345,-2.0364,-2.0375,-2.04,-2.0415,-2.0428,-2.045,-2.046,-2.0468,-2.0474,-2.0461,-2.0462,-2.0462,-2.0459,-2.047,-2.047,-2.047,-2.047,-2.0344,-2.0347,-2.0371,-2.0389,-2.0408,-2.0423,-2.0446,-2.0463,-2.0479,-2.0486,-2.0486,-2.0483,-2.0482,-2.0485,-2.0484,-2.0481,-2.0498,-2.0498,-2.0498,-2.035,-2.0356,-2.0374,-2.0392,-2.0414,-2.0432,-2.0455,-2.0475,-2.0494,-2.05,-2.0493,-2.0492,-2.0487,-2.0485,-2.0489,-2.0486,-2.0482,0,0]}]]